Location: Newark
(35.7127°N, 139.7618°E)
Time: 19:05:46
(UTC+00:00)

Envisat - Pass Details

Date: 17 August 2020
Orbit: 764 x 766 km, 98.1° (Epoch: 19 September)

Event Time Altitude Azimuth Distance (km) Brightness Sun altitude
Rises 19:23:06 0° 39° (NE) 3,234 7.5 -8.3°
Reaches altitude 10° 19:27:23 10° 74° (ENE) 2,301 7.2 -7.5°
Maximum altitude 19:28:49 11° 90° (E) 2,222 6.7 -7.2°
Drops below altitude 10° 19:30:15 10° 107° (ESE) 2,297 6.3 -7.0°
Sets 19:34:29 0° 142° (SE) 3,215 6.5 -6.2°
